QPF
0.00 0.00 0.00 0.00 0.00 0.00 0.00 0.00 0.00 0.00 0.00 0.00 0.00 0.00 0.00 0.00 0.00 0.00 0.00 0.01 0.00 0.01 0.01 0.01 0.01 0.01 0.01 0.01 0.01 0.02 0.02 0.03 0.04 0.03 0.02 0.02 0.01 0.02 0.02 0.02 0.02 0.02 0.02
0.00 0.00 0.00 0.00 0.00 0.00 0.00 0.00 0.00 0.00 0.00 0.00 0.00 0.00 0.00 0.00 0.00 0.00 0.00 0.01 0.01 0.02 0.01 0.01 0.01 0.01 0.01 0.01 0.01 0.02 0.03 0.03 0.03 0.03 0.03 0.02 0.02 0.02 0.02 0.03 0.02 0.02 0.01
0.00 0.00 0.00 0.00 0.00 0.00 0.00 0.00 0.00 0.00 0.00 0.00 0.00 0.00 0.00 0.00 0.00 0.00 0.00 0.01 0.01 0.01 0.01 0.01 0.01 0.01 0.01 0.01 0.01 0.01 0.02 0.02 0.03 0.03 0.02 0.02 0.02 0.02 0.02 0.02 0.03 0.03 0.02
0.00 0.00 0.00 0.00 0.00 0.00 0.00 0.00 0.00 0.00 0.00 0.00 0.00 0.00 0.00 0.00 0.00 0.00 0.00 0.00 0.01 0.01 0.01 0.02 0.01 0.02 0.02 0.02 0.02 0.02 0.02 0.02 0.02 0.02 0.02 0.02 0.02 0.02 0.02 0.02 0.03 0.03 0.03
0.00 0.00 0.00 0.00 0.00 0.00 0.00 0.00 0.00 0.00 0.00 0.00 0.00 0.00 0.00 0.00 0.00 0.00 0.00 0.00 0.01 0.01 0.01 0.02 0.03 0.03 0.03 0.04 0.03 0.03 0.03 0.03 0.02 0.02 0.02 0.02 0.02 0.03 0.02 0.02 0.02 0.04 0.04
0.00 0.00 0.00 0.00 0.00 0.00 0.00 0.00 0.00 0.00 0.00 0.00 0.00 0.00 0.00 0.00 0.00 0.00 0.00 0.00 0.00 0.00 0.01 0.02 0.03 0.05 0.04 0.02 0.03 0.03 0.02 0.02 0.03 0.02 0.02 0.02 0.02 0.02 0.02 0.02 0.02 0.02 0.03
0.00 0.00 0.00 0.00 0.00 0.00 0.00 0.00 0.00 0.00 0.00 0.00 0.00 0.00 0.00 0.00 0.00 0.00 0.00 0.00 0.00 0.00 0.00 0.00 0.02 0.04 0.02 0.01 0.02 0.03 0.02 0.01 0.01 0.02 0.03 0.03 0.02 0.02 0.03 0.03 0.02 0.02 0.02
0.00 0.00 0.00 0.00 0.00 0.00 0.00 0.00 0.00 0.00 0.00 0.00 0.00 0.00 0.00 0.00 0.00 0.00 0.00 0.00 0.00 0.00 0.00 0.00 0.00 0.01 0.01 0.01 0.01 0.02 0.02 0.01 0.02 0.02 0.03 0.03 0.02 0.02 0.02 0.02 0.03 0.03 0.03
0.00 0.00 0.00 0.00 0.00 0.00 0.00 0.00 0.00 0.00 0.00 0.00 0.00 0.00 0.00 0.00 0.00 0.00 0.00 0.00 0.00 0.00 0.00 0.00 0.00 0.00 0.00 0.00 0.01 0.01 0.01 0.00 0.01 0.03 0.02 0.02 0.02 0.02 0.02 0.02 0.03 0.03 0.02
0.00 0.00 0.00 0.00 0.00 0.00 0.00 0.00 0.00 0.00 0.00 0.00 0.00 0.00 0.00 0.00 0.00 0.00 0.00 0.00 0.00 0.00 0.00 0.00 0.00 0.00 0.00 0.00 0.00 0.00 0.00 0.00 0.00 0.01 0.02 0.01 0.01 0.02 0.03 0.03 0.05 0.05 0.04
0.00 0.00 0.00 0.00 0.00 0.00 0.00 0.00 0.00 0.00 0.00 0.00 0.00 0.00 0.00 0.00 0.00 0.00 0.00 0.00 0.00 0.00 0.00 0.00 0.00 0.00 0.00 0.00 0.00 0.00 0.00 0.00 0.00 0.00 0.01 0.01 0.01 0.02 0.02 0.03 0.03 0.03 0.04
0.00 0.00 0.00 0.00 0.00 0.00 0.00 0.00 0.00 0.00 0.00 0.00 0.00 0.00 0.00 0.00 0.00 0.00 0.00 0.00 0.00 0.00 0.00 0.00 0.00 0.00 0.00 0.00 0.00 0.00 0.00 0.00 0.00 0.01 0.01 0.00 0.00 0.01 0.03 0.03 0.03 0.03 0.03
0.00 0.00 0.00 0.00 0.00 0.00 0.00 0.00 0.00 0.00 0.00 0.00 0.00 0.00 0.00 0.00 0.00 0.00 0.00 0.00 0.00 0.00 0.00 0.00 0.00 0.00 0.00 0.00 0.00 0.00 0.00 0.00 0.01 0.01 0.01 0.01 0.01 0.01 0.01 0.02 0.02 0.03 0.03
0.00 0.00 0.00 0.00 0.00 0.00 0.00 0.00 0.00 0.00 0.00 0.00 0.00 0.00 0.00 0.00 0.00 0.00 0.00 0.00 0.00 0.00 0.00 0.00 0.00 0.00 0.00 0.00 0.00 0.00 0.00 0.01 0.01 0.01 0.01 0.01 0.01 0.01 0.01 0.01 0.01 0.02 0.03
0.00 0.00 0.00 0.00 0.00 0.00 0.00 0.00 0.00 0.00 0.00 0.00 0.00 0.00 0.00 0.00 0.00 0.00 0.00 0.00 0.00 0.00 0.00 0.00 0.00 0.00 0.00 0.00 0.00 0.00 0.00 0.01 0.01 0.00 0.00 0.00 0.01 0.01 0.01 0.02 0.02 0.02 0.02
0.00 0.00 0.00 0.00 0.00 0.00 0.00 0.00 0.00 0.00 0.00 0.00 0.00 0.00 0.00 0.00 0.00 0.00 0.00 0.00 0.00 0.00 0.00 0.00 0.00 0.00 0.00 0.00 0.00 0.00 0.00 0.00 0.00 0.00 0.00 0.00 0.00 0.01 0.01 0.01 0.02 0.02 0.03
0.00 0.00 0.00 0.00 0.00 0.00 0.00 0.00 0.00 0.00 0.00 0.00 0.00 0.00 0.00 0.00 0.00 0.00 0.00 0.00 0.00 0.00 0.00 0.00 0.00 0.00 0.00 0.00 0.00 0.00 0.00 0.00 0.00 0.00 0.00 0.00 0.00 0.00 0.01 0.01 0.02 0.02 0.02
0.00 0.00 0.00 0.00 0.00 0.00 0.00 0.00 0.00 0.00 0.00 0.00 0.00 0.00 0.00 0.00 0.00 0.00 0.00 0.00 0.00 0.00 0.00 0.00 0.00 0.00 0.00 0.00 0.00 0.00 0.00 0.00 0.00 0.00 0.00 0.00 0.00 0.00 0.00 0.00 0.01 0.01 0.01
0.00 0.00 0.00 0.00 0.00 0.00 0.00 0.00 0.00 0.00 0.00 0.00 0.00 0.00 0.00 0.00 0.00 0.00 0.00 0.00 0.00 0.00 0.00 0.01 0.01 0.01 0.01 0.01 0.01 0.00 0.00 0.00 0.00 0.00 0.00 0.00 0.00 0.00 0.00 0.00 0.00 0.01 0.01
0.00 0.00 0.00 0.00 0.00 0.00 0.00 0.00 0.00 0.00 0.00 0.00 0.00 0.00 0.00 0.00 0.00 0.00 0.00 0.00 0.00 0.00 0.00 0.00 0.01 0.01 0.01 0.01 0.01 0.00 0.00 0.00 0.00 0.00 0.00 0.00 0.00 0.00 0.00 0.00 0.00 0.00 0.01
0.00 0.00 0.00 0.00 0.00 0.00 0.00 0.00 0.00 0.00 0.00 0.00 0.00 0.00 0.00 0.00 0.00 0.00 0.00 0.00 0.00 0.00 0.00 0.00 0.00 0.00 0.00 0.00 0.00 0.00 0.00 0.00 0.00 0.00 0.00 0.00 0.00 0.00 0.00 0.00 0.00 0.00 0.00
0.00 0.00 0.00 0.00 0.00 0.00 0.00 0.00 0.00 0.00 0.00 0.00 0.00 0.00 0.00 0.00 0.00 0.00 0.00 0.00 0.00 0.00 0.00 0.00 0.00 0.00 0.00 0.00 0.00 0.00 0.00 0.00 0.00 0.00 0.00 0.00 0.00 0.00 0.00 0.00 0.00 0.00 0.00
0.00 0.00 0.00 0.00 0.00 0.00 0.00 0.00 0.00 0.00 0.00 0.00 0.00 0.00 0.00 0.00 0.00 0.00 0.00 0.00 0.00 0.00 0.00 0.00 0.00 0.00 0.00 0.00 0.00 0.00 0.00 0.00 0.00 0.00 0.00 0.00 0.00 0.00 0.00 0.00 0.00 0.00 0.00
0.00 0.00 0.00 0.00 0.00 0.00 0.00 0.00 0.00 0.00 0.00 0.00 0.00 0.00 0.00 0.00 0.00 0.00 0.00 0.00 0.00 0.00 0.00 0.00 0.00 0.00 0.00 0.00 0.00 0.00 0.00 0.00 0.00 0.00 0.00 0.00 0.00 0.00 0.00 0.00 0.00 0.00 0.00
0.00 0.00 0.00 0.00 0.00 0.00 0.00 0.00 0.00 0.00 0.00 0.00 0.00 0.00 0.00 0.00 0.00 0.00 0.00 0.00 0.00 0.00 0.00 0.00 0.00 0.00 0.00 0.00 0.00 0.00 0.00 0.00 0.00 0.00 0.00 0.00 0.00 0.00 0.00 0.00 0.00 0.00 0.00
0.00 0.00 0.00 0.00 0.00 0.00 0.00 0.00 0.00 0.00 0.00 0.00 0.00 0.00 0.00 0.00 0.00 0.00 0.00 0.00 0.00 0.00 0.00 0.00 0.00 0.00 0.00 0.00 0.00 0.00 0.00 0.00 0.00 0.00 0.00 0.00 0.00 0.00 0.00 0.00 0.00 0.00 0.00
MSLP
1012.74 1013.02 1013.25 1013.44 1013.56 1013.62 1013.65 1013.66 1013.67 1013.70 1013.76 1013.84 1013.92 1013.99 1014.03 1014.03 1013.99 1013.91 1013.80 1013.70 1013.61 1013.54 1013.50 1013.47 1013.44 1013.40 1013.31 1013.17 1012.98 1012.73 1012.45 1012.15 1011.84 1011.55 1011.29 1011.06 1010.86 1010.69 1010.55 1010.44 1010.37 1010.33 1010.35
1012.32 1012.59 1012.84 1013.04 1013.20 1013.31 1013.39 1013.44 1013.50 1013.57 1013.65 1013.73 1013.82 1013.88 1013.91 1013.89 1013.84 1013.75 1013.63 1013.52 1013.41 1013.32 1013.25 1013.20 1013.15 1013.09 1013.01 1012.90 1012.74 1012.55 1012.34 1012.11 1011.87 1011.64 1011.42 1011.21 1011.00 1010.81 1010.63 1010.47 1010.34 1010.24 1010.19
1011.91 1012.20 1012.46 1012.69 1012.88 1013.02 1013.14 1013.24 1013.33 1013.42 1013.52 1013.61 1013.70 1013.76 1013.78 1013.76 1013.70 1013.61 1013.50 1013.37 1013.25 1013.15 1013.06 1012.99 1012.92 1012.85 1012.77 1012.66 1012.54 1012.40 1012.25 1012.09 1011.92 1011.75 1011.57 1011.39 1011.19 1010.99 1010.78 1010.57 1010.37 1010.20 1010.07
1011.49 1011.81 1012.10 1012.35 1012.56 1012.73 1012.87 1013.00 1013.11 1013.22 1013.32 1013.42 1013.51 1013.57 1013.60 1013.59 1013.54 1013.46 1013.36 1013.25 1013.13 1013.03 1012.93 1012.84 1012.76 1012.68 1012.59 1012.49 1012.39 1012.29 1012.18 1012.07 1011.95 1011.83 1011.69 1011.53 1011.35 1011.13 1010.89 1010.64 1010.38 1010.14 1009.92
1011.05 1011.40 1011.71 1011.99 1012.21 1012.39 1012.54 1012.67 1012.79 1012.90 1013.00 1013.10 1013.19 1013.26 1013.30 1013.31 1013.29 1013.24 1013.17 1013.09 1013.00 1012.91 1012.83 1012.74 1012.65 1012.56 1012.47 1012.37 1012.27 1012.17 1012.08 1011.99 1011.91 1011.81 1011.69 1011.55 1011.37 1011.15 1010.89 1010.60 1010.29 1009.99 1009.70
1010.56 1010.95 1011.28 1011.57 1011.80 1011.98 1012.12 1012.24 1012.35 1012.45 1012.55 1012.64 1012.73 1012.80 1012.85 1012.89 1012.90 1012.89 1012.87 1012.83 1012.79 1012.74 1012.69 1012.62 1012.54 1012.45 1012.35 1012.24 1012.13 1012.03 1011.93 1011.83 1011.74 1011.64 1011.53 1011.39 1011.20 1010.98 1010.71 1010.39 1010.05 1009.70 1009.35
1010.02 1010.44 1010.80 1011.08 1011.31 1011.48 1011.61 1011.72 1011.81 1011.89 1011.97 1012.06 1012.13 1012.20 1012.26 1012.31 1012.35 1012.38 1012.41 1012.43 1012.44 1012.45 1012.44 1012.41 1012.36 1012.29 1012.19 1012.07 1011.94 1011.81 1011.68 1011.55 1011.43 1011.31 1011.17 1011.01 1010.82 1010.59 1010.31 1009.99 1009.63 1009.26 1008.88
1009.47 1009.90 1010.26 1010.55 1010.77 1010.93 1011.05 1011.14 1011.22 1011.28 1011.35 1011.41 1011.47 1011.52 1011.57 1011.62 1011.67 1011.73 1011.79 1011.85 1011.92 1011.98 1012.03 1012.06 1012.05 1012.01 1011.93 1011.81 1011.67 1011.50 1011.33 1011.16 1010.99 1010.82 1010.64 1010.46 1010.25 1010.00 1009.73 1009.41 1009.06 1008.69 1008.31
1008.91 1009.35 1009.71 1009.99 1010.21 1010.37 1010.49 1010.58 1010.65 1010.71 1010.76 1010.79 1010.83 1010.85 1010.87 1010.89 1010.93 1010.98 1011.05 1011.14 1011.25 1011.36 1011.47 1011.56 1011.61 1011.61 1011.56 1011.46 1011.31 1011.13 1010.92 1010.69 1010.47 1010.24 1010.02 1009.79 1009.56 1009.31 1009.04 1008.74 1008.41 1008.06 1007.70
1008.38 1008.82 1009.18 1009.47 1009.69 1009.86 1010.00 1010.11 1010.19 1010.25 1010.29 1010.30 1010.30 1010.28 1010.25 1010.22 1010.21 1010.22 1010.27 1010.36 1010.49 1010.64 1010.79 1010.94 1011.05 1011.12 1011.12 1011.05 1010.91 1010.72 1010.49 1010.22 1009.95 1009.67 1009.39 1009.12 1008.86 1008.60 1008.33 1008.05 1007.76 1007.45 1007.12
1007.91 1008.34 1008.70 1009.00 1009.25 1009.46 1009.63 1009.77 1009.88 1009.96 1010.00 1010.00 1009.96 1009.89 1009.79 1009.69 1009.61 1009.56 1009.55 1009.61 1009.73 1009.89 1010.09 1010.29 1010.46 1010.59 1010.65 1010.64 1010.53 1010.35 1010.11 1009.82 1009.51 1009.18 1008.86 1008.55 1008.25 1007.98 1007.71 1007.45 1007.18 1006.91 1006.63
1007.50 1007.92 1008.30 1008.62 1008.91 1009.17 1009.40 1009.59 1009.75 1009.86 1009.92 1009.91 1009.84 1009.71 1009.55 1009.37 1009.20 1009.06 1008.99 1009.00 1009.08 1009.24 1009.46 1009.69 1009.93 1010.12 1010.25 1010.29 1010.23 1010.08 1009.85 1009.55 1009.21 1008.85 1008.49 1008.14 1007.82 1007.52 1007.25 1007.00 1006.75 1006.51 1006.26
1007.14 1007.57 1007.97 1008.34 1008.68 1008.99 1009.29 1009.55 1009.77 1009.93 1010.01 1010.01 1009.92 1009.75 1009.53 1009.27 1009.02 1008.80 1008.66 1008.60 1008.64 1008.78 1008.99 1009.26 1009.53 1009.78 1009.97 1010.07 1010.07 1009.96 1009.75 1009.46 1009.11 1008.72 1008.33 1007.95 1007.60 1007.28 1007.00 1006.74 1006.51 1006.28 1006.05
1006.82 1007.27 1007.71 1008.12 1008.52 1008.90 1009.27 1009.60 1009.88 1010.09 1010.21 1010.23 1010.14 1009.95 1009.69 1009.38 1009.07 1008.79 1008.57 1008.46 1008.46 1008.57 1008.77 1009.04 1009.34 1009.63 1009.87 1010.02 1010.06 1009.99 1009.81 1009.54 1009.19 1008.80 1008.39 1007.98 1007.60 1007.26 1006.96 1006.69 1006.45 1006.23 1006.01
1006.52 1007.00 1007.48 1007.94 1008.40 1008.85 1009.27 1009.67 1010.01 1010.27 1010.43 1010.48 1010.41 1010.23 1009.97 1009.64 1009.30 1008.99 1008.74 1008.58 1008.54 1008.62 1008.81 1009.07 1009.38 1009.68 1009.95 1010.13 1010.21 1010.18 1010.03 1009.77 1009.43 1009.04 1008.62 1008.20 1007.81 1007.44 1007.12 1006.84 1006.59 1006.36 1006.12
1006.21 1006.74 1007.26 1007.78 1008.28 1008.78 1009.25 1009.69 1010.08 1010.38 1010.59 1010.69 1010.66 1010.52 1010.28 1009.98 1009.66 1009.35 1009.09 1008.92 1008.86 1008.92 1009.08 1009.32 1009.62 1009.92 1010.18 1010.38 1010.48 1010.47 1010.34 1010.11 1009.78 1009.40 1008.99 1008.57 1008.16 1007.79 1007.45 1007.15 1006.88 1006.63 1006.38
1005.88 1006.46 1007.03 1007.58 1008.13 1008.66 1009.16 1009.63 1010.05 1010.39 1010.64 1010.78 1010.82 1010.74 1010.57 1010.33 1010.06 1009.79 1009.56 1009.41 1009.34 1009.39 1009.52 1009.73 1009.99 1010.27 1010.52 1010.70 1010.80 1010.80 1010.68 1010.47 1010.17 1009.81 1009.41 1009.00 1008.60 1008.22 1007.88 1007.57 1007.29 1007.02 1006.74
1005.52 1006.15 1006.76 1007.35 1007.92 1008.46 1008.98 1009.46 1009.89 1010.26 1010.55 1010.75 1010.85 1010.85 1010.77 1010.62 1010.43 1010.23 1010.06 1009.94 1009.89 1009.92 1010.03 1010.21 1010.42 1010.66 1010.87 1011.03 1011.11 1011.11 1011.01 1010.81 1010.54 1010.20 1009.83 1009.44 1009.06 1008.70 1008.36 1008.04 1007.74 1007.45 1007.16
1005.12 1005.80 1006.44 1007.06 1007.64 1008.18 1008.70 1009.18 1009.62 1010.01 1010.33 1010.59 1010.76 1010.85 1010.86 1010.82 1010.73 1010.62 1010.51 1010.44 1010.41 1010.43 1010.52 1010.66 1010.82 1011.00 1011.17 1011.29 1011.36 1011.35 1011.25 1011.08 1010.83 1010.54 1010.20 1009.84 1009.49 1009.14 1008.81 1008.49 1008.19 1007.88 1007.56
1004.69 1005.39 1006.07 1006.70 1007.28 1007.83 1008.34 1008.82 1009.26 1009.66 1010.02 1010.32 1010.56 1010.73 1010.85 1010.90 1010.91 1010.89 1010.85 1010.83 1010.82 1010.85 1010.91 1011.01 1011.13 1011.26 1011.38 1011.46 1011.51 1011.49 1011.40 1011.25 1011.04 1010.78 1010.48 1010.16 1009.83 1009.51 1009.19 1008.87 1008.55 1008.23 1007.89
1004.21 1004.94 1005.63 1006.27 1006.87 1007.41 1007.92 1008.39 1008.84 1009.25 1009.63 1009.98 1010.28 1010.53 1010.73 1010.87 1010.97 1011.03 1011.06 1011.07 1011.09 1011.12 1011.16 1011.23 1011.30 1011.39 1011.47 1011.53 1011.55 1011.53 1011.46 1011.33 1011.15 1010.93 1010.66 1010.37 1010.07 1009.76 1009.44 1009.12 1008.79 1008.45 1008.09
1003.71 1004.45 1005.15 1005.80 1006.40 1006.95 1007.46 1007.94 1008.39 1008.82 1009.23 1009.61 1009.96 1010.27 1010.54 1010.75 1010.92 1011.04 1011.12 1011.17 1011.20 1011.23 1011.26 1011.30 1011.35 1011.41 1011.46 1011.50 1011.52 1011.50 1011.44 1011.34 1011.18 1010.98 1010.75 1010.48 1010.18 1009.87 1009.55 1009.22 1008.88 1008.51 1008.13
1003.20 1003.93 1004.63 1005.29 1005.89 1006.46 1006.98 1007.47 1007.94 1008.39 1008.82 1009.24 1009.63 1009.98 1010.29 1010.56 1010.77 1010.93 1011.04 1011.12 1011.17 1011.21 1011.24 1011.27 1011.31 1011.35 1011.40 1011.43 1011.45 1011.44 1011.40 1011.31 1011.17 1010.98 1010.75 1010.48 1010.19 1009.86 1009.52 1009.17 1008.80 1008.41 1008.01
1002.72 1003.43 1004.12 1004.78 1005.40 1005.97 1006.51 1007.02 1007.51 1007.99 1008.44 1008.88 1009.30 1009.68 1010.02 1010.32 1010.56 1010.75 1010.89 1010.99 1011.06 1011.11 1011.15 1011.19 1011.23 1011.28 1011.33 1011.37 1011.40 1011.40 1011.36 1011.27 1011.13 1010.95 1010.71 1010.42 1010.10 1009.75 1009.38 1009.00 1008.60 1008.19 1007.76
1002.32 1003.00 1003.68 1004.33 1004.95 1005.54 1006.10 1006.63 1007.14 1007.63 1008.11 1008.57 1009.00 1009.40 1009.76 1010.07 1010.33 1010.54 1010.70 1010.83 1010.92 1010.99 1011.05 1011.11 1011.18 1011.24 1011.31 1011.36 1011.39 1011.39 1011.35 1011.26 1011.11 1010.90 1010.63 1010.32 1009.96 1009.58 1009.17 1008.75 1008.33 1007.90 1007.46
1002.05 1002.69 1003.34 1003.98 1004.60 1005.19 1005.76 1006.31 1006.84 1007.35 1007.84 1008.31 1008.75 1009.16 1009.53 1009.85 1010.12 1010.35 1010.54 1010.68 1010.80 1010.91 1011.00 1011.09 1011.18 1011.27 1011.35 1011.41 1011.44 1011.44 1011.38 1011.27 1011.09 1010.85 1010.54 1010.19 1009.79 1009.37 1008.93 1008.48 1008.03 1007.59 1007.15
Thickness
5710 5706 5701 5698 5694 5690 5687 5684 5681 5680 5678 5675 5673 5672 5671 5670 5669 5667 5666 5665 5664 5665 5665 5665 5664 5664 5666 5667 5667 5668 5669 5670 5670 5676 5682 5686 5687 5691 5694 5698 5701 5705 5710
5712 5708 5704 5700 5695 5692 5689 5686 5683 5681 5679 5677 5674 5672 5671 5669 5668 5666 5664 5663 5663 5663 5663 5663 5663 5662 5662 5663 5663 5664 5664 5665 5665 5667 5673 5677 5680 5683 5686 5690 5695 5699 5702
5713 5709 5705 5701 5697 5694 5691 5687 5684 5682 5679 5678 5675 5673 5671 5669 5667 5666 5665 5664 5663 5662 5662 5662 5662 5661 5659 5660 5660 5661 5661 5662 5662 5662 5665 5668 5672 5676 5679 5682 5687 5690 5694
5714 5710 5706 5703 5699 5696 5693 5689 5686 5683 5680 5678 5675 5673 5671 5669 5668 5667 5665 5664 5663 5663 5661 5660 5660 5659 5658 5657 5657 5658 5657 5657 5657 5658 5659 5662 5665 5669 5671 5674 5678 5682 5686
5716 5712 5708 5706 5702 5697 5693 5689 5686 5683 5680 5677 5675 5673 5671 5669 5668 5666 5665 5664 5663 5663 5662 5661 5659 5656 5654 5653 5654 5655 5654 5654 5654 5654 5655 5658 5659 5661 5664 5667 5669 5673 5678
5718 5714 5710 5706 5703 5698 5694 5691 5687 5684 5681 5678 5675 5673 5670 5669 5664 5660 5659 5663 5663 5663 5661 5660 5659 5655 5652 5650 5649 5649 5649 5650 5652 5652 5653 5654 5656 5657 5658 5660 5662 5664 5667
5721 5716 5712 5707 5703 5699 5696 5691 5687 5684 5682 5678 5675 5673 5670 5669 5663 5660 5658 5660 5662 5662 5661 5660 5658 5656 5651 5652 5650 5647 5648 5646 5645 5648 5650 5651 5652 5654 5654 5655 5656 5657 5661
5722 5718 5714 5708 5704 5700 5696 5692 5689 5686 5683 5679 5676 5674 5671 5669 5664 5661 5659 5660 5662 5661 5660 5659 5657 5655 5652 5650 5650 5650 5650 5649 5647 5647 5648 5648 5649 5649 5650 5650 5651 5653 5656
5723 5718 5715 5710 5705 5701 5697 5694 5692 5688 5684 5682 5678 5675 5673 5672 5666 5662 5658 5662 5662 5662 5660 5658 5655 5653 5648 5644 5646 5648 5648 5648 5645 5643 5642 5643 5642 5643 5644 5645 5647 5648 5651
5723 5718 5715 5711 5706 5701 5698 5695 5693 5688 5684 5682 5680 5677 5675 5673 5668 5663 5658 5663 5663 5662 5660 5658 5650 5649 5645 5642 5645 5646 5645 5646 5645 5646 5643 5643 5643 5644 5642 5643 5644 5644 5645
5722 5717 5712 5708 5704 5701 5697 5694 5690 5687 5684 5682 5681 5679 5676 5673 5669 5663 5659 5661 5662 5661 5659 5657 5654 5646 5642 5640 5640 5642 5641 5639 5642 5643 5643 5643 5643 5643 5643 5642 5641 5640 5641
5716 5711 5708 5704 5701 5698 5693 5690 5688 5685 5682 5680 5679 5679 5677 5674 5668 5664 5659 5657 5657 5658 5657 5655 5652 5643 5640 5638 5638 5637 5635 5634 5638 5640 5639 5639 5639 5639 5639 5639 5638 5638 5638
5711 5706 5703 5700 5696 5693 5690 5687 5685 5682 5681 5679 5678 5675 5674 5672 5668 5661 5658 5655 5652 5652 5654 5648 5644 5639 5637 5636 5633 5632 5631 5634 5635 5635 5635 5635 5635 5634 5634 5634 5635 5635 5635
5707 5703 5698 5696 5691 5688 5684 5683 5680 5678 5676 5674 5672 5670 5669 5667 5665 5662 5660 5657 5651 5649 5647 5643 5637 5634 5633 5631 5630 5631 5631 5630 5629 5628 5628 5629 5629 5629 5629 5630 5630 5630 5631
5702 5697 5694 5690 5687 5682 5678 5673 5671 5667 5665 5664 5664 5662 5660 5659 5654 5649 5651 5652 5651 5649 5645 5640 5637 5634 5631 5629 5628 5626 5624 5623 5622 5621 5621 5621 5622 5622 5623 5623 5623 5623 5624
5696 5692 5687 5683 5679 5675 5669 5662 5654 5654 5650 5649 5648 5649 5648 5644 5642 5642 5641 5640 5638 5636 5635 5633 5629 5626 5622 5619 5618 5616 5614 5612 5610 5610 5611 5611 5611 5612 5613 5614 5615 5615 5616
5691 5686 5681 5677 5673 5669 5665 5660 5653 5644 5640 5639 5638 5637 5636 5635 5633 5632 5631 5629 5627 5626 5626 5622 5618 5614 5610 5607 5605 5603 5602 5600 5599 5600 5599 5599 5599 5600 5601 5602 5603 5604 5606
5685 5679 5675 5670 5667 5663 5660 5656 5652 5648 5642 5637 5630 5626 5625 5624 5623 5622 5621 5621 5618 5615 5612 5608 5604 5601 5598 5596 5594 5592 5591 5590 5590 5589 5589 5588 5588 5589 5590 5590 5591 5591 5593
5677 5671 5667 5664 5660 5656 5652 5648 5645 5641 5637 5632 5628 5621 5616 5614 5613 5611 5611 5611 5608 5603 5599 5595 5592 5589 5586 5584 5582 5581 5580 5579 5578 5578 5577 5576 5576 5577 5578 5578 5579 5578 5579
5669 5663 5659 5656 5652 5647 5643 5640 5636 5632 5629 5625 5621 5617 5613 5611 5609 5605 5601 5598 5595 5591 5587 5583 5580 5577 5574 5572 5570 5569 5569 5568 5567 5566 5566 5565 5565 5565 5565 5566 5567 5568 5569
5660 5653 5649 5647 5644 5640 5635 5632 5628 5623 5620 5616 5611 5605 5599 5601 5598 5594 5590 5586 5583 5579 5575 5571 5568 5565 5563 5561 5559 5558 5557 5556 5555 5554 5553 5552 5551 5551 5552 5552 5553 5554 5555
5653 5647 5642 5639 5635 5630 5626 5622 5618 5614 5610 5605 5600 5593 5586 5588 5586 5583 5579 5575 5571 5566 5563 5559 5557 5553 5550 5548 5546 5545 5545 5543 5542 5541 5539 5539 5538 5538 5538 5539 5539 5540 5541
5644 5639 5634 5629 5624 5618 5615 5612 5608 5603 5599 5595 5591 5586 5582 5579 5575 5571 5567 5563 5558 5554 5551 5547 5544 5541 5538 5536 5533 5531 5531 5529 5527 5525 5524 5524 5524 5524 5524 5524 5524 5525 5526
5633 5629 5624 5619 5614 5609 5606 5602 5597 5593 5589 5586 5581 5577 5573 5568 5564 5559 5555 5551 5547 5543 5539 5536 5532 5529 5526 5523 5521 5519 5517 5514 5511 5510 5510 5510 5510 5510 5509 5510 5510 5510 5510
5621 5617 5613 5609 5604 5600 5596 5591 5587 5583 5579 5575 5571 5566 5562 5557 5553 5548 5544 5540 5535 5532 5528 5524 5521 5518 5515 5512 5509 5506 5502 5498 5495 5494 5494 5495 5496 5495 5495 5494 5494 5494 5493
5607 5604 5600 5596 5592 5588 5584 5580 5576 5572 5568 5564 5559 5555 5550 5546 5541 5537 5532 5528 5524 5520 5516 5513 5510 5506 5503 5500 5497 5492 5488 5485 5483 5480 5479 5481 5481 5481 5480 5479 5478 5478 5477